Location: Les Martinières
(47.2667°N, 1.4410°E)
Time: 00:21:39
(UTC+00:00)

Cosmos 2333 Rocket - Pass Details

Date: 15 May 2026
Orbit: 840 x 862 km, 70.8° (Epoch: 9 June)

Event Time Altitude Azimuth Distance (km) Brightness Sun altitude
Rises 21:35:11 0° 328° (NNW) 3,423 7.2 -17.0°
Reaches altitude 10° 21:37:42 10° 322° (NW) 2,487 6.0 -17.3°
Maximum altitude 21:43:08 47° 251° (WSW) 1,126 2.9 -17.8°
Enters shadow 21:46:30 22° 189° (S) 1,780 3.5 -18.1°
